RH
97 100 98 78 31 21 20 21 31 25 11 7 6 5 5 5 7 19 13 8 9 8 7 7 7 7 6 6 7 7 7 7 8 8 8 9 9 9
100 99 99 99 44 21 31 23 35 41 29 17 10 8 6 5 5 11 20 11 9 9 8 7 8 7 7 7 7 7 7 8 8 8 9 9 9 10
98 94 97 98 47 36 26 26 44 45 36 27 17 9 8 5 5 6 18 21 11 9 9 8 8 8 8 7 7 7 8 8 8 8 9 9 9 10
91 89 100 90 76 63 21 35 44 29 30 29 28 13 6 6 5 5 6 21 20 12 10 9 8 8 8 8 7 7 8 8 8 8 8 8 9 9
95 94 100 82 96 88 38 29 34 20 23 28 29 18 9 6 6 6 5 10 23 23 14 10 9 8 8 8 8 8 7 8 8 8 8 8 9 9
100 100 100 99 94 97 58 32 26 33 20 24 26 19 14 8 5 6 5 5 12 24 22 12 10 9 9 9 8 8 8 8 8 8 8 9 9 9
98 100 100 100 99 100 91 63 42 38 21 17 18 20 13 10 5 5 5 5 5 14 23 19 12 9 9 9 9 9 9 8 8 8 8 8 9 9
100 100 99 100 100 100 99 100 68 32 18 13 13 14 12 11 9 7 5 5 5 5 11 22 20 11 10 10 10 10 10 10 9 9 9 9 8 8
99 100 99 100 100 100 99 100 99 63 43 30 19 13 12 10 10 8 6 5 5 6 6 12 24 19 15 12 11 11 10 10 10 10 10 9 10 9
99 99 100 100 99 99 100 100 100 76 78 48 34 23 17 11 11 12 10 10 9 7 6 6 11 21 25 20 16 14 13 12 10 10 10 10 10 10
99 100 99 99 100 98 100 100 100 88 94 68 46 34 24 12 9 12 10 9 8 7 6 6 6 7 17 23 25 22 17 14 13 12 11 11 11 12
97 100 100 99 100 100 100 100 100 97 81 86 68 49 32 20 10 11 13 8 9 8 6 6 5 5 6 12 24 28 26 23 22 19 17 15 14 14
99 90 99 99 99 100 100 100 98 99 83 93 97 99 52 31 19 12 11 9 9 8 6 8 6 5 6 6 10 25 29 31 31 33 30 26 24 24
73 80 98 100 100 100 99 100 99 100 100 99 96 99 83 38 23 18 17 13 10 9 10 10 9 7 6 7 6 9 24 36 36 37 38 38 38 36
97 92 99 99 99 100 100 100 100 100 100 100 90 79 85 95 41 30 25 20 17 16 18 14 12 11 8 7 7 7 8 12 31 33 37 38 44 45
99 99 100 100 100 100 100 100 99 99 99 100 100 100 78 98 99 63 30 27 27 20 22 18 16 17 15 11 10 9 8 9 11 19 29 38 44 49
98 98 100 100 99 100 100 98 100 100 93 96 100 97 100 97 95 98 81 49 38 28 21 23 24 23 22 19 14 13 11 11 10 12 19 30 40 44
95 93 96 100 100 100 100 97 100 100 99 99 100 99 100 99 98 100 100 80 81 62 48 34 30 31 28 24 24 21 16 14 12 13 24 21 19 27
50 74 82 88 96 99 99 100 100 97 100 100 92 100 100 96 99 91 99 100 98 99 94 74 54 46 42 29 24 29 22 18 18 16 18 24 24 22
46 46 50 49 66 80 94 98 99 99 99 100 99 100 100 99 100 97 94 99 93 100 100 100 92 84 76 61 48 39 43 44 36 26 24 28 27 26
19 30 46 55 52 49 42 63 82 96 100 100 99 100 99 100 100 100 100 98 93 97 95 98 99 100 99 100 96 84 80 56 42 40 34 33 33 32
2 5 12 22 39 55 55 50 47 53 88 72 87 95 97 99 100 99 100 100 99 95 97 96 100 100 100 100 99 100 100 77 42 38 38 47 48 40
4 3 3 5 13 29 52 62 62 60 56 56 60 62 77 95 100 100 99 99 100 100 99 100 99 100 100 99 100 100 99 88 60 52 54 57 60 60
Wind_Speed
62 59 54 56 53 49 45 39 33 36 39 42 42 38 34 32 30 27 26 26 25 24 23 22 21 20 19 18 17 16 16 15 15 14 13 12 12 11
59 59 59 52 55 51 46 40 37 36 38 38 38 39 36 35 33 32 28 27 26 26 26 24 23 22 21 20 20 19 18 17 16 15 14 14 13 12
63 63 55 57 59 52 49 43 41 41 39 39 41 43 41 39 38 36 33 29 28 28 28 27 26 24 23 22 22 21 21 19 19 18 17 16 15 14
65 58 56 61 54 50 48 47 46 41 40 40 40 42 42 41 39 38 37 32 30 29 29 29 28 27 26 25 25 24 23 22 21 20 20 19 17 16
64 66 67 56 57 52 50 48 46 42 41 41 40 42 43 44 43 42 41 38 34 33 32 31 30 29 29 28 28 27 25 25 24 23 22 21 21 20
51 59 57 59 59 54 49 47 46 44 44 45 46 43 43 44 46 44 43 42 41 36 33 33 32 31 33 31 30 29 27 26 25 25 25 24 23 23
57 52 55 60 58 52 47 44 45 45 46 47 50 48 47 47 48 45 45 44 44 39 37 36 33 34 34 33 33 31 29 29 27 27 27 26 26 26
35 53 59 52 63 58 46 42 40 41 45 49 51 51 49 45 45 47 45 48 47 44 43 38 34 36 35 34 31 31 31 31 30 30 29 29 29 28
36 49 49 48 60 57 51 45 42 42 42 43 48 49 48 47 44 45 48 47 45 46 45 41 37 38 36 33 32 33 34 34 34 34 32 32 31 31
27 34 38 39 44 63 51 50 48 47 45 46 48 48 49 47 46 44 44 43 46 48 45 46 43 41 39 35 36 36 36 37 36 36 35 35 34 33
45 32 42 43 47 61 51 47 49 49 45 44 45 43 46 47 48 48 52 51 51 51 49 45 45 45 44 42 41 40 40 39 38 37 37 37 37 36
34 32 32 35 44 41 50 50 53 52 52 48 42 43 44 47 51 52 51 54 52 51 51 46 47 47 49 47 45 44 43 43 41 40 39 38 38 39
35 34 29 27 34 36 48 49 55 49 54 47 46 40 45 43 49 53 55 56 55 54 51 48 48 49 50 51 48 48 47 44 43 41 40 40 39 40
43 36 42 35 32 30 37 35 56 49 49 54 47 50 46 46 48 50 52 55 55 52 52 50 50 51 52 52 51 50 49 47 47 45 43 42 42 42
40 38 40 39 37 31 35 36 42 40 47 52 56 51 46 45 45 46 49 52 53 54 53 53 53 49 52 53 52 52 52 51 50 49 48 47 45 45
33 35 37 40 42 40 40 31 35 39 36 39 51 50 55 48 49 48 49 52 54 56 55 54 53 52 52 54 53 54 51 54 53 52 52 52 50 50
31 34 41 38 40 41 39 43 40 39 35 37 43 42 43 52 56 49 53 53 55 56 57 55 55 54 53 53 56 54 53 53 53 52 55 56 54 52
31 37 43 40 44 45 47 48 50 47 47 42 45 42 41 47 59 58 54 56 57 56 56 57 54 54 56 58 60 55 53 53 54 55 54 55 57 57
37 38 35 39 41 45 44 46 50 51 53 54 52 53 51 43 45 56 60 62 58 61 62 60 57 55 58 64 60 55 53 54 56 59 54 55 57 55
29 33 36 36 40 40 44 45 48 51 48 55 58 58 55 56 56 53 52 54 56 61 60 64 66 63 62 60 57 58 54 54 55 57 56 54 56 56
29 29 28 31 35 37 41 46 51 50 55 50 50 57 60 60 60 60 61 61 54 55 56 66 67 62 62 60 61 62 59 56 56 56 55 56 56 58
27 30 32 34 34 36 37 40 42 48 53 50 55 54 56 65 61 67 64 62 61 59 56 53 53 56 59 59 62 64 63 58 56 57 57 55 56 59
21 23 25 28 30 32 34 37 39 43 46 50 49 52 60 58 57 62 62 67 68 66 64 62 60 62 64 62 59 63 64 58 56 56 54 54 54 56
Wind_Direction
220 217 221 221 222 218 222 220 228 229 215 215 214 215 216 216 216 221 219 214 213 213 213 214 212 212 212 209 208 209 207 205 204 201 200 199 197 196
218 219 219 224 226 217 219 218 223 221 221 220 217 218 218 217 217 219 222 219 215 216 216 215 215 215 214 215 213 213 215 215 213 212 211 210 210 209
222 224 221 223 219 217 213 215 220 216 220 216 219 220 220 215 216 218 221 221 218 219 220 218 217 218 218 218 218 218 218 218 219 218 220 221 219 219
217 226 218 215 216 218 215 214 216 212 219 221 223 221 220 221 219 218 221 220 221 220 222 222 220 220 221 222 222 222 222 222 223 224 225 227 228 229
223 221 214 211 216 217 217 216 215 214 219 223 222 219 219 221 221 219 220 219 220 220 221 222 222 221 222 224 225 226 226 227 227 227 230 232 233 234
220 214 220 219 217 216 215 215 214 215 218 221 220 218 218 220 223 223 222 222 223 223 223 222 223 224 225 224 226 227 229 231 232 232 233 235 237 240
227 220 224 215 218 214 217 215 216 217 219 221 223 222 220 220 223 226 226 225 227 225 227 227 226 228 229 227 228 229 231 233 234 235 236 238 239 241
218 219 224 220 217 218 209 217 222 224 223 222 225 225 224 224 225 229 228 229 229 229 229 227 228 233 234 233 233 233 235 236 238 238 238 238 240 242
228 221 222 220 217 220 211 213 218 221 225 225 231 231 231 228 229 233 232 233 233 235 235 234 231 234 236 237 237 238 237 237 237 239 240 242 243 243
224 221 229 223 222 208 212 218 215 218 220 224 225 228 228 228 228 234 239 240 237 237 235 236 233 235 237 235 237 239 239 239 240 241 242 244 246 247
234 225 222 220 221 209 225 223 215 218 222 227 231 230 231 229 228 228 231 235 236 237 235 234 235 236 237 236 236 238 239 240 241 241 242 245 247 248
231 219 224 217 220 216 217 220 219 216 223 229 229 235 233 230 228 229 232 235 238 238 237 237 237 237 238 238 239 240 242 244 244 244 245 246 248 250
219 233 229 211 208 213 217 225 216 223 224 222 234 234 236 233 231 230 232 234 237 240 240 237 238 241 242 244 240 243 244 246 248 248 248 249 250 254
223 239 221 226 222 222 217 220 225 225 226 225 233 228 236 235 233 231 234 237 240 242 246 244 241 242 244 245 246 246 246 248 250 251 250 251 251 251
214 225 224 206 213 222 219 231 226 221 228 231 233 238 233 239 239 235 235 238 239 241 243 243 246 245 246 246 247 248 248 249 250 252 252 252 252 253
208 219 220 225 233 218 219 224 225 228 225 230 234 236 229 242 240 239 238 238 241 241 243 245 246 246 246 247 246 249 248 250 250 251 255 254 254 254
229 235 226 227 226 222 226 230 224 227 220 230 228 231 233 238 239 242 242 241 242 243 244 245 246 247 247 249 248 247 249 250 251 251 252 255 255 257
245 239 238 238 235 236 228 225 230 230 222 233 239 236 234 236 233 238 241 240 246 245 246 247 245 248 250 248 249 248 249 251 254 251 251 255 257 256
253 255 251 249 248 238 239 232 234 235 237 241 234 243 241 244 245 240 241 242 244 248 249 248 247 246 249 251 251 251 253 255 256 258 254 255 258 259
254 250 253 255 257 256 250 249 244 239 244 240 235 241 240 238 243 243 243 246 245 245 249 246 248 247 248 254 261 261 257 258 259 259 258 258 258 259
258 255 252 249 250 252 253 252 248 248 243 246 243 243 246 242 239 244 244 243 243 246 250 249 246 250 253 255 253 256 258 256 255 256 256 256 256 257
259 259 257 256 253 251 250 247 247 250 251 257 254 247 249 247 242 244 246 240 240 243 246 249 250 247 249 252 256 256 255 255 253 251 252 254 256 259
275 267 262 259 257 256 253 251 250 250 249 252 253 257 258 258 255 250 248 242 243 244 247 247 251 251 252 257 254 255 251 248 251 249 251 252 254 259